User: anonymous   Login
Location: Unspecified
(0.0000°N, 0.0000°E)
Time: 04:32:01
(UTC+00:00)
Language:

RISAT 1 - Orbit

View from above orbital plane
View from above orbital plane
View from above satellite
View from above satellite

Ground track
Ground track

The orbit data is extracted from the following two-line orbital elements,

1 38248U 12017A   16207.77375852  .00000674  00000-0  46662-4 0  9991
2 38248  97.5608 213.8534 0006430  77.7870  21.6327 15.08957472234016
Epoch (UTC): 25 July 2016 18:34:12
Eccentricity: 0.0006430
inclination: 97.5608°
perigee height: 535 km
apogee height: 544 km
right ascension of ascending node: 213.8534°
argument of perigee: 77.7870°
revolutions per day: 15.08957472
mean anomaly at epoch: 21.6327°
orbit number at epoch: 23401

The dashed part of the orbit path shows where the satellite is in the earth's shadow,  

DLR